Orbital Elements at Epoch 2459000.5 (2020-May-31.0) TDB
Reference: JPL 25 (heliocentric ecliptic J2000)
Element | Value | Uncertainty (1-sigma) | Units |
e | .1857683965528982 | 3.4847e-08 | |
a | 2.696335841797337 | 1.2208e-08 | au |
q | 2.195441855898536 | 9.7395e-08 | au |
i | 11.53020805217758 | 4.6382e-06 | deg |
node | 188.4122774905791 | 1.5985e-05 | deg |
peri | 230.2777933574422 | 1.9874e-05 | deg |
M | 340.4565691784138 | 1.2662e-05 | deg |
tp | 2459088.292559185814 (2020-Aug-26.79255919) | 5.7173e-05 | TDB |
period | 1617.183881142503 4.43 | 1.0983e-05 3.007e-08 | d yr |
n | .2226091937953699 | 1.5118e-09 | deg/d |
Q | 3.197229827696137 | 1.4476e-08 | au |
|
| | Orbit Determination Parameters
Additional Information
|